EW9636 Weather Reports


time (UTC)temp
C
wind
direction
speed
KPH
gust
KPH
rain 1hr
cm
rain 24hr
cm
rain mn
cm
humidity
%
barometer
mb
20260510190020 11 23 1.6 4.8 0.00 0.00 0.00 60 1015.6
20260510185020 12 45 3.2 4.8 0.00 0.00 0.00 60 1015.6
20260510184020 12 23 4.8 4.8 0.00 0.00 0.00 58 1015.7
20260510183020 13 45 4.8 12.9 0.00 0.00 0.00 57 1015.8
20260510182020 13 45 6.4 12.9 0.00 0.00 0.00 57 1015.8
20260510181019 13 23 4.8 9.7 0.00 0.00 0.00 58 1015.7
20260510180028 13 23 8.0 14.5 0.00 0.00 0.00 57 1015.7
20260510175031 13 45 6.4 9.7 0.00 0.00 0.00 56 1015.7
20260510174021 13 45 4.8 9.7 0.00 0.00 0.00 59 1015.7
20260510173020 13 45 3.2 8.0 0.00 0.00 0.00 58 1015.7
20260510172020 13 23 3.2 6.4 0.00 0.00 0.00 55 1015.9
20260510171020 15 45 4.8 12.9 0.00 0.00 0.00 52 1016.0
20260510170040 15 45 8.0 16.1 0.00 0.00 0.00 52 1016.1
20260510165040 15 0 4.8 11.3 0.00 0.00 0.00 57 1016.2
20260510164019 14 23 3.2 9.7 0.00 0.00 0.00 59 1016.2
20260510163020 13 0 3.2 6.4 0.00 0.00 0.00 58 1016.4
20260510162039 13 23 4.8 8.0 0.00 0.00 0.00 58 1016.5
20260510161020 14 23 8.0 16.1 0.00 0.00 0.00 58 1016.5
20260510160030 13 45 6.4 16.1 0.00 0.00 0.00 61 1016.7
20260510155020 14 23 4.8 8.0 0.00 0.00 0.00 59 1016.8
20260510154019 14 45 6.4 9.7 0.00 0.00 0.00 59 1016.8
20260510153039 14 45 9.7 16.1 0.00 0.00 0.00 59 1016.9
20260510152040 14 23 4.8 8.0 0.00 0.00 0.00 61 1017.0
20260510151100 14 23 6.4 9.7 0.00 0.00 0.00 60 1017.2
20260510150019 14 68 4.8 8.0 0.00 0.00 0.00 60 1017.3
20260510145019 14 45 6.4 9.7 0.00 0.00 0.00 62 1017.4
20260510144019 14 45 8.0 16.1 0.00 0.00 0.00 62 1017.5
20260510143019 14 90 6.4 14.5 0.00 0.00 0.00 62 1017.5
20260510142039 13 45 6.4 9.7 0.00 0.00 0.00 62 1017.6
20260510141023 15 45 9.7 17.7 0.00 0.00 0.00 61 1017.8
20260510140039 14 45 8.0 16.1 0.00 0.00 0.00 65 1017.7
20260510135019 13 45 6.4 11.3 0.00 0.00 0.00 65 1017.9
20260510134019 14 45 9.7 12.9 0.00 0.00 0.00 63 1017.7
20260510133019 13 45 11.3 17.7 0.00 0.00 0.00 67 1017.9
20260510132019 13 45 3.2 6.4 0.00 0.00 0.00 68 1018.3
20260510131019 12 45 8.0 12.9 0.00 0.00 0.00 69 1018.4
20260510130019 12 45 4.8 6.4 0.00 0.00 0.00 69 1018.3
20260510125019 12 45 8.0 12.9 0.00 0.00 0.00 71 1018.5
20260510124039 12 45 9.7 19.3 0.00 0.00 0.00 72 1018.6
20260510123019 12 45 9.7 14.5 0.00 0.00 0.00 71 1018.6
20260510122020 12 45 4.8 9.7 0.00 0.00 0.00 73 1018.7
20260510121019 11 45 6.4 9.7 0.00 0.00 0.00 75 1018.9
20260510120019 11 338 6.4 11.3 0.00 0.00 0.00 73 1019.0
20260510115019 11 45 4.8 8.0 0.00 0.00 0.00 76 1019.2
20260510114039 11 45 3.2 8.0 0.00 0.00 0.00 75 1019.4
20260510113028 11 45 9.7 17.7 0.00 0.00 0.00 76 1019.5
20260510112521 11 23 6.4 12.9 0.00 0.00 0.00 75 1019.5
20260510112119 11 45 9.7 14.5 0.00 0.00 0.00 77 1019.5
20260510111118 11 45 6.4 9.7 0.00 0.00 0.00 78 1019.6
20260510110139 10 23 6.4 14.5 0.00 0.00 0.00 78 1019.6
20260510105118 10 45 6.4 11.3 0.00 0.00 0.00 78 1019.8
20260510104140 10 45 6.4 14.5 0.00 0.00 0.00 79 1019.8
20260510103119 10 45 8.0 11.3 0.00 0.00 0.00 79 1019.8
20260510102118 10 23 9.7 14.5 0.00 0.00 0.00 80 1019.9
20260510101119 10 23 8.0 11.3 0.00 0.00 0.00 81 1020.0
20260510100123 10 45 9.7 16.1 0.00 0.00 0.00 81 1019.9
20260510095618 10 45 9.7 19.3 0.00 0.00 0.00 81 1019.9
20260510094620 10 45 9.7 17.7 0.00 0.00 0.00 82 1020.0
20260510093618 10 23 8.0 16.1 0.00 0.00 0.00 82 1020.1
20260510092620 9 45 9.7 19.3 0.00 0.00 0.00 83 1020.1
20260510091629 9 45 8.0 11.3 0.00 0.00 0.00 84 1020.2
20260510090620 9 45 6.4 8.0 0.00 0.00 0.00 85 1020.2
20260510085640 8 23 8.0 12.9 0.00 0.00 0.00 85 1020.3
20260510084620 8 45 8.0 11.3 0.00 0.00 0.00 85 1020.3
20260510083620 8 45 6.4 11.3 0.00 0.00 0.00 86 1020.4
20260510082620 8 68 6.4 12.9 0.00 0.00 0.00 86 1020.4
20260510081638 8 23 8.0 20.9 0.00 0.00 0.00 87 1020.4
20260510080620 8 45 6.4 12.9 0.00 0.00 0.00 87 1020.5
20260510075620 8 45 8.0 11.3 0.00 0.00 0.00 87 1020.5
20260510074620 8 45 6.4 12.9 0.00 0.00 0.00 87 1020.6
20260510073620 8 45 8.0 14.5 0.00 0.00 0.00 87 1020.5
20260510072620 8 45 8.0 16.1 0.00 0.00 0.00 88 1020.3
20260510071620 8 45 9.7 14.5 0.00 0.00 0.00 88 1020.2
20260510070620 8 23 8.0 11.3 0.00 0.00 0.00 88 1020.2
20260510065620 8 45 6.4 12.9 0.00 0.00 0.00 88 1020.3
20260510064620 8 23 4.8 8.0 0.00 0.00 0.00 89 1020.1
20260510063620 8 45 8.0 17.7 0.00 0.00 0.00 89 1020.1
20260510062640 8 45 6.4 9.7 0.00 0.00 0.00 90 1020.2
20260510061620 8 45 8.0 16.1 0.00 0.00 0.00 90 1020.1
20260510060620 8 45 11.3 16.1 0.00 0.00 0.00 90 1020.0
20260510055640 8 45 8.0 12.9 0.00 0.00 0.00 90 1020.1
20260510054620 8 45 6.4 12.9 0.00 0.00 0.00 90 1019.9
20260510053620 8 45 6.4 11.3 0.00 0.00 0.00 90 1019.9
20260510052620 8 45 6.4 9.7 0.00 0.00 0.00 90 1019.9
20260510051620 8 45 8.0 11.3 0.00 0.00 0.00 91 1019.9
20260510050620 8 45 9.7 14.5 0.00 0.00 0.00 90 1020.1
20260510045620 8 45 8.0 12.9 0.00 0.00 0.00 90 1020.1
20260510044640 8 0 6.4 14.5 0.00 0.00 0.00 90 1020.1
20260510043620 8 0 4.8 8.0 0.00 0.00 0.00 90 1020.1
20260510042640 8 45 8.0 16.1 0.00 0.00 0.00 90 1020.2
20260510041619 8 45 9.7 16.1 0.00 0.00 0.00 90 1020.2
20260510040619 8 45 11.3 20.9 0.00 0.00 0.00 90 1020.3
20260510035619 8 45 9.7 16.1 0.00 0.00 0.00 90 1020.3
20260510034619 8 23 6.4 8.0 0.00 0.00 0.00 89 1020.4
20260510033620 8 45 6.4 14.5 0.00 0.00 0.00 89 1020.4
20260510032619 8 45 4.8 9.7 0.00 0.00 0.00 90 1020.4
20260510031619 8 45 4.8 11.3 0.00 0.00 0.00 90 1020.4
20260510030620 9 68 4.8 9.7 0.00 0.00 0.00 90 1020.5
20260510025620 9 45 6.4 12.9 0.00 0.00 0.00 89 1020.5
20260510024620 9 23 8.0 11.3 0.00 0.00 0.00 90 1020.5
20260510023620 9 45 6.4 11.3 0.00 0.00 0.00 89 1020.5
20260510022619 9 45 6.4 11.3 0.00 0.00 0.00 89 1020.5
20260510021619 9 45 8.0 12.9 0.00 0.00 0.00 89 1020.4
20260510020619 9 45 6.4 9.7 0.00 0.00 0.00 89 1020.5
20260510015619 10 23 8.0 22.5 0.00 0.00 0.00 88 1020.4
20260510014620 10 45 4.8 8.0 0.00 0.00 0.00 88 1020.5
20260510013619 10 23 6.4 9.7 0.00 0.00 0.00 88 1020.6
20260510012639 10 45 8.0 12.9 0.00 0.00 0.00 88 1020.6
20260510011619 10 45 6.4 12.9 0.00 0.00 0.00 87 1020.7
20260510010619 10 23 6.4 11.3 0.00 0.00 0.00 87 1020.8
20260510005619 10 45 6.4 9.7 0.00 0.00 0.00 87 1020.6
20260510004619 10 45 6.4 8.0 0.00 0.00 0.00 86 1020.7
20260510003639 10 45 6.4 9.7 0.00 0.00 0.00 86 1020.5
20260510002619 10 23 8.0 16.1 0.00 0.00 0.00 86 1020.6
20260510001640 10 45 6.4 9.7 0.00 0.00 0.00 86 1020.4
20260510000619 10 23 6.4 12.9 0.00 0.00 0.00 86 1020.5
20260509235619 10 45 6.4 11.3 0.00 0.00 0.00 85 1020.4
20260509234619 10 23 6.4 11.3 0.00 0.00 0.00 85 1020.4
20260509233639 11 45 6.4 12.9 0.00 0.00 0.00 85 1020.5
20260509232639 11 45 3.2 6.4 0.00 0.00 0.00 85 1020.5
20260509231619 11 23 4.8 19.3 0.00 0.00 0.00 84 1020.6
20260509230619 11 45 9.7 14.5 0.00 0.00 0.00 84 1020.5
20260509225619 11 0 4.8 8.0 0.00 0.00 0.00 85 1020.4
20260509224619 11 45 8.0 14.5 0.00 0.00 0.00 85 1020.3
20260509223619 11 23 3.2 9.7 0.00 0.00 0.00 85 1020.2
20260509222619 11 45 3.2 8.0 0.00 0.00 0.00 84 1020.1
20260509221619 11 23 9.7 16.1 0.00 0.00 0.00 84 1020.0
20260509220619 12 68 6.4 11.3 0.00 0.03 0.00 84 1020.1
20260509215619 12 45 8.0 12.9 0.00 0.03 0.00 84 1020.0
20260509214619 12 45 3.2 8.0 0.00 0.05 0.00 83 1020.0
20260509213619 12 45 4.8 9.7 0.00 0.10 0.00 83 1019.9
20260509212639 12 45 9.7 16.1 0.00 0.15 0.00 83 1019.6
20260509211619 12 45 9.7 16.1 0.00 0.15 0.00 83 1019.3
20260509210619 12 45 8.0 11.3 0.00 0.15 0.00 84 1019.3
20260509205619 12 23 3.2 6.4 0.00 0.15 0.00 85 1019.2
20260509204619 12 23 3.2 4.8 0.00 0.15 0.00 84 1019.1
20260509203619 13 23 6.4 8.0 0.00 0.15 0.00 84 1018.9
20260509202619 13 23 8.0 16.1 0.00 0.15 0.00 83 1019.0
20260509201619 13 23 6.4 11.3 0.00 0.15 0.00 82 1019.0
20260509200619 13 45 8.0 12.9 0.00 0.15 0.00 82 1018.8
20260509195619 13 338 3.2 6.4 0.00 0.15 0.00 81 1018.7
20260509194619 13 0 1.6 3.2 0.00 0.15 0.00 81 1018.4
20260509193619 13 45 3.2 8.0 0.00 0.15 0.00 80 1018.5
20260509192619 14 23 1.6 3.2 0.00 0.15 0.00 80 1018.3
20260509191619 14 338 1.6 4.8 0.00 0.15 0.00 79 1018.2